Simultaneous Nadir Overpasses (SNOs) Predictions

Prediction of SNOs between GOES-16 and NOAA-19 Satellite Orbit:

Table of predicted SNOs for the next 14.0 days since TLE Epoch: 9/14/2024
Index Date Time (GOES-16) GOES-16 Lat,Lon NOAA-19 Lat,Lon Distance(km) Time Diff (sec)
1 09/16/2024 14:32:39 -0.05, -75.21 0.41, -77.13 219.40 80
2 09/17/2024 14:22:57 -0.05, -75.22 -0.31, -74.13 124.83 80
3 09/18/2024 14:10:33 -0.05, -75.23 -0.98, -71.11 469.23 80
4 09/20/2024 02:39:36 0.05, -75.23 -0.75, -78.73 398.89 80
5 09/21/2024 02:27:13 0.05, -75.24 -0.05, -75.72 53.99 80
6 09/22/2024 02:17:30 0.04, -75.26 0.65, -72.71 291.04 80
7 09/24/2024 14:33:55 -0.04, -75.29 0.41, -77.26 224.49 80
8 09/25/2024 14:24:12 -0.04, -75.30 -0.29, -74.25 120.95 80
9 09/26/2024 14:11:47 -0.04, -75.32 -0.95, -71.22 466.60 80
